"Pseudo-MPEC" for C468MC1

Created 2026 May 8 7:35:06 UT using Find_Orb

Click here for an explanation of pseudo-MPECs

 
 Astrometry: 
     C468MC1*1C2026 05 06.29273111 28 08.288+21 16 32.84   ~567o 18.07GVNEOCP703
     C468MC1 1C2026 05 06.29498011 28 16.090+21 20 21.70   ~567o 18.69GVNEOCP703
     C468MC1 1C2026 05 06.29722911 28 23.581+21 24 00.72   ~567ox      VNEOCP703
     C468MC1 1C2026 05 06.29947911 28 31.325+21 27 51.48   ~567o 18.55GVNEOCP703
     C468MC1 1C2026 05 06.32960311 30 14.832+22 17 47.36   ~568K       VNEOCP703
     C468MC1 1C2026 05 06.32978411 30 15.599+22 18 06.91   ~568Kx19.88GVNEOCP703
     C468MC1 1C2026 05 06.32996411 30 16.009+22 18 24.05   ~568K 18.02GVNEOCP703
     C468MC1 1C2026 05 06.33014511 30 16.736+22 18 41.90   ~568K 19.41GVNEOCP703
     C468MC1 KB2026 05 06.85051 12 01 12.81 +34 48 05.3    ~5705 18.9 GXNEOCPM45
     C468MC1 KB2026 05 06.85172 12 01 16.74 +34 49 33.3    ~5705 18.8 GXNEOCPM45
     C468MC1 KB2026 05 06.85281 12 01 20.29 +34 50 52.5    ~5705 18.8 GXNEOCPM45
     C468MC1 KB2026 05 06.87363812 02 43.02 +35 16 32.6    ~56N5 19.5 GXNEOCP958
     C468MC1 KB2026 05 06.87623312 02 51.36 +35 19 39.3    ~56N5 19.1 GXNEOCP958
     C468MC1 KB2026 05 06.87878612 02 59.61 +35 22 43.3    ~56N5 18.9 GXNEOCP958
     C468MC1 KB2026 05 06.88202 12 02 55.30 +35 25 49.0    ~57MZ 18.7 GXNEOCPM45
     C468MC1 KB2026 05 06.88425 12 03 02.53 +35 28 25.7    ~57MZ 19.0 GXNEOCPM45
     C468MC1 KB2026 05 06.88655 12 03 10.02 +35 31 07.8    ~57MZ 19.0 GXNEOCPM45
     C468MC1 KB2026 05 06.90296 12 04 04.86 +35 50 16.1    ~56NK 18.8 GXNEOCPL04
     C468MC1 KB2026 05 06.91122 12 04 31.81 +35 59 51.0    ~56NK 19.1 GXNEOCPL04
     C468MC1 0C2026 05 06.92308112 05 23.544+36 13 28.88   ~56MZ 19.1 GWNEOCPJ95
     C468MC1 0C2026 05 06.92406912 05 26.789+36 14 37.54   ~56MZ 18.5 GWNEOCPJ95
     C468MC1 0C2026 05 06.92671712 05 35.381+36 17 39.84   ~56MZ 19.1 GWNEOCPJ95
     C468MC1 KC2026 05 07.08624112 14 52.30 +39 13 56.9    ~572Z 19.1 GVNEOCPH21
     C468MC1 KC2026 05 07.08730212 14 55.63 +39 15 03.1    ~572Z 19.0 GVNEOCPH21
     C468MC1 KC2026 05 07.08836412 14 58.96 +39 16 09.2    ~572Z 19.0 GVNEOCPH21
     C468MC1 KC2026 05 07.08942512 15 02.29 +39 17 15.4    ~572Z 19.0 GVNEOCPH21
     C468MC1 KC2026 05 07.09080612 15 06.61 +39 18 41.2    ~572Z 19.0 GVNEOCPH21
     C468MC1 1C2026 05 07.14631912 18 14.746+40 15 37.87   ~573o 18.80GVNEOCPI52
     C468MC1 1C2026 05 07.14665812 18 15.786+40 15 58.28   ~573o 18.84GVNEOCPI52
     C468MC1 1C2026 05 07.14700412 18 16.826+40 16 18.95   ~573o 18.99GVNEOCPI52
     C468MC1 1C2026 05 07.14734912 18 17.928+40 16 39.65   ~573o 19.22GVNEOCPI52
     C468MC1  C2026 05 07.23894012 23 04.695+41 43 39.20   ~576K 18.86GVNEOCPU74
     C468MC1 1C2026 05 07.24195612 23 07.980+41 46 56.90   ~576Z       VNEOCPG96
     C468MC1  C2026 05 07.24221412 23 14.725+41 46 37.87   ~576K 18.86GVNEOCPU74
     C468MC1 1C2026 05 07.24766412 23 25.382+41 52 09.12   ~576Z 20.50GVNEOCPG96
     C468MC1 1C2026 05 07.25337312 23 42.760+41 57 20.00   ~576Z       VNEOCPG96
     C468MC1  C2026 05 07.27122012 24 35.389+42 12 58.73   ~577K 18.8 GWNEOCPH01
     C468MC1  C2026 05 07.27520112 24 47.579+42 16 30.36   ~577K 18.8 GWNEOCPH01
     C468MC1  C2026 05 07.28475712 25 16.852+42 24 55.48   ~577K 19.5 GWNEOCPH01
     C468MC1  C2026 05 07.29367012 25 44.179+42 32 42.39   ~577K 19.2 GWNEOCPH01
     C468MC1 KB2026 05 07.61001612 42 30.576+46 43 00.52   ~57Fo       ZNEOCP900
     C468MC1 KB2026 05 07.62743912 43 20.947+46 54 56.48   ~57Fox      ZNEOCP900
     C468MC1 0B2026 05 07.91229512 57 49.756+49 52 23.04   ~587Z       WNEOCP204
     C468MC1 0B2026 05 07.92039712 58 11.822+49 56 53.54   ~587Z       WNEOCP204
     C468MC1 0B2026 05 07.92903012 58 35.316+50 01 39.53   ~587Z 19.6 GWNEOCP204
     C468MC1  C2026 05 08.25709513 13 59.836+52 44 50.23   ~587K 19.79GVNEOCPU74
     C468MC1  C2026 05 08.26036913 14 08.011+52 46 14.44   ~587K 19.79GVNEOCPU74

Station data:
(204) Schiaparelli Observatory  (N45.868292 E8.769720)  Italy.  Observer L.
   Buzzi. 0.84-m f/3.5 reflector + CCD.
(703) Catalina Sky Survey  (N32.417029 W110.732640)  US/Arizona.  Observer E.
   J. Christensen. Measurers T. Beuden, V. F. Carvajal, D. Fay, J. B.
   Fazekas, D. C. Fuls, A. R. Gibbs, A. D. Grauer, H. Gröller, J. K. Hogan,
   R. A. Kowalski, S. M. Larson, G. J. Leonard, D. Rankin, R. L. Seaman, F.
   C. Shelly, K. W. Wierzchoś. 0.68 m Schmidt + 10K CCD.
(900) Moriyama  (N35.049753 E135.989940)  Japan.  Observer Y. Ikari. 0.26-m
   f/7.0 reflector + CCD.
(958) Observatoire de Dax  (N43.693381 W1.030530)  France.  Observer P.
   Dupouy. 0.32-m Schmidt-Cassegrain.
(G96) Mt. Lemmon Survey  (N32.442729 W110.788720)  US/Arizona.  Observer E.
   J. Christensen. Measurers T. Beuden, V. F. Carvajal, D. Fay, J. B.
   Fazekas, D. C. Fuls, A. R. Gibbs, A. D. Grauer, H. Gröller, J. K. Hogan,
   R. A. Kowalski, S. M. Larson, G. J. Leonard, D. Rankin, R. L. Seaman, F.
   C. Shelly, K. W. Wierzchoś. 1.5-m reflector + 10K CCD.
(H01) Magdalena Ridge Observatory, Socorro  (N33.984833 W107.189333)  US/New
   Mexico.  Observers W. H. Ryan, E. V. Ryan. Measurer W. H. Ryan. 2.4-m
   f/8.9 reflector + CCD.
(H21) Astronomical Research Observatory, Westfield  (N39.483054 W87.968270)
   US/Illinois.  Observer R. Holmes. Measurers S. Foglia, L. Buzzi, T.
   Linder, R. Holmes. 0.40-m f/5.32 astrograph + CCD.
(I52) Steward Observatory, Mt. Lemmon Station  (N32.442570 W110.788920)
   US/Arizona. Measurers T. Beuden, V. F. Carvajal, D. Fay, J. B. Fazekas, D.
   C. Fuls, A. R. Gibbs, A. D. Grauer, H. Gröller, J. K. Hogan, R. A.
   Kowalski, S. M. Larson, G. J. Leonard, D. Rankin, R. L. Seaman, F. C.
   Shelly, K. W. Wierzchoś. 1.0-m prime focus + CCD.
(J95) Great Shefford  (N51.474969 W1.447003)  UK/England.  Observer P.
   Birtwhistle. 0.41-m f/6.3 Schmidt-Cassegrain + CCD.
(L04) ROASTERR-1 Observatory, Cluj-Napoca  (N46.820952 E23.596400)  Romania.
   Observer L. Hudin. 0.1-m f/9 refractor + CCD.
(M45) Starhopper Observatory, Sfantu Gheorghe  (N45.865494 E25.768890)
   Romania.  Observer F. Ursache. 0.41-m f/7.5 reflector + CMO.
(U74) JPL SynTrack Robotic Telescope 2, Auberry  (N37.070341 W119.412800)
   US/California.  Observers N. Saini, C. Zhai, R. Trahan, M. Zhan, M. Shao.
   0.36-m f/2.2 Schmidt.

Orbital elements:  C468MC1
   Perihelion 2026 Apr 23.106567 +/- 0.0131 TT =  2:33:27.3 (JD 2461153.606567)
Epoch 2026 May  8.0 TT = JDT 2461168.5   Earth MOID: 0.0061   Ma: 0.0715
M  11.135524241 +/- 0.014           (J2000 ecliptic)             AutoNEOCP
n   0.747680136 +/- 0.000299        Peri.  346.777978 +/- 0.012
a   1.202242714 +/- 0.000321        Node   224.322841 +/- 0.00035
e   0.15916790 +/- 0.000219         Incl.   24.779552 +/- 0.013
P   1.318/481.480d         H 25.89  G  0.15   U  7.3
q 1.010884262 +/- 6.15e-6    Q 1.393601167 +/- 0.000636
44 of 47 observations 2026 May 6-8 (47.2 hr); mean residual 0".58
Residuals in arcseconds: 
260506 703  1.1-  1.5-    260506 M45  .03+  .12-    260507 G96  .13+  .55-    
260506 703  .75+  1.1+    260506 L04  .49+  .25+    260507 U74  .12+  1.2-    
260506 703( 1.8-  5.8-)   260506 L04  .73+  .61+    260507 G96  .07+  .36-    
260506 703  1.0-  .82-    260506 J95  .48-  .02+    260507 G96  .28-  .08+    
260506 703  .37+  1.1-    260506 J95  .00   .29+    260507 H01  .01+  .04-    
260506 703( 2.3+  .63+)   260506 J95  .03+  .45-    260507 H01  .02+  .08-    
260506 703  .58-  .02+    260507 H21  .31+  .08+    260507 H01  .02-  .09+    
260506 703  .85+  .02+    260507 H21  .31+  .14+    260507 H01  .07-  .02-    
260506 M45  .58+  .98+    260507 H21  .29+  .09+    260507 900  .85-  .89-    
260506 M45  .52+  1.0+    260507 H21  .32+  .28+    260507 900( 1.3-  1.9+)   
260506 M45  .58+  1.1+    260507 H21  .20+  .24+    260507 204  .00   .33+    
260506 958  .87+  .62+    260507 I52  .07+  .40-    260507 204  .01+  .27+    
260506 958  .43+  .60+    260507 I52  .03-  .27-    260507 204  .10+  .31+    
260506 958  .57+  1.3+    260507 I52  .38-  .28-    260508 U74  .20+  .82+    
260506 M45  .37+  1.7+    260507 I52  .01+  .20-    260508 U74  .30+  .84-    
260506 M45  .01+  .43+    260507 U74  .16-  .77+    

Ephemerides (geocentric):
Date (UTC) HH   RA             Dec           delta  r     elong  mag " sig PA
---- --------  ------------   ------------  ------ ------ -----  --- --------
2026 05 08 08  13 17 23.902   +53 15 36.95  .02386 1.0162 106.3 20.3 .030  80
2026 05 08 09  13 19 13.812   +53 32 39.01  .02414 1.0162 106.2 20.4 .031  83
2026 05 08 10  13 21 02.666   +53 49 11.70  .02441 1.0162 106.0 20.4 .032  85
2026 05 08 11  13 22 50.465   +54 05 15.98  .02469 1.0163 105.9 20.4 .032  87
2026 05 08 12  13 24 37.212   +54 20 52.78  .02497 1.0163 105.7 20.5 .033  89
2026 05 08 13  13 26 22.909   +54 36 03.02  .02525 1.0163 105.6 20.5 .034  91
2026 05 08 14  13 28 07.559   +54 50 47.55  .02553 1.0164 105.4 20.5 .034  93
2026 05 08 15  13 29 51.166   +55 05 07.22  .02581 1.0164 105.3 20.6 .035  95
2026 05 08 16  13 31 33.733   +55 19 02.83  .02610 1.0164 105.1 20.6 .035  97
2026 05 08 17  13 33 15.266   +55 32 35.18  .02638 1.0164 105.0 20.6 .036  99
2026 05 08 18  13 34 55.767   +55 45 45.01  .02666 1.0165 104.9 20.6 .036 101
2026 05 08 19  13 36 35.243   +55 58 33.05  .02695 1.0165 104.7 20.7 .037 103
2026 05 08 20  13 38 13.699   +56 11 00.01  .02724 1.0165 104.6 20.7 .037 104
2026 05 08 21  13 39 51.140   +56 23 06.56  .02752 1.0166 104.5 20.7 .038 106
2026 05 08 22  13 41 27.573   +56 34 53.35  .02781 1.0166 104.3 20.7 .038 108
2026 05 08 23  13 43 03.003   +56 46 21.03  .02810 1.0166 104.2 20.8 .039 110
2026 05 09 00  13 44 37.437   +56 57 30.18  .02839 1.0167 104.1 20.8 .039 112
2026 05 09 01  13 46 10.881   +57 08 21.41  .02868 1.0167 104.0 20.8 .040 114
2026 05 09 02  13 47 43.343   +57 18 55.28  .02897 1.0167 103.8 20.8 .041 116
2026 05 09 03  13 49 14.830   +57 29 12.34  .02926 1.0167 103.7 20.9 .041 118
2026 05 09 04  13 50 45.349   +57 39 13.11  .02955 1.0168 103.6 20.9 .042 120
